This is the latest recevied weather packets stored in our database for station/object F5MDY-10. If no packets are shown the sender has not sent any weather packets the latest 10 day(s).
| Time | Temp. | Humidity | Pressure | Rain* | Wind** | Luminosity | Snow |
|---|---|---|---|---|---|---|---|
| 1787816492 | 25° C | 52% | 985.7 hPa | - | - | - | - |
| 1787814572 | 24.44° C | 52% | 985.9 hPa | - | - | - | - |
| 1787812651 | 25° C | 52% | 985.9 hPa | - | - | - | - |
| 1787810731 | 25° C | 51% | 986 hPa | - | - | - | - |
| 1787808811 | 25° C | 51% | 986 hPa | - | - | - | - |
| 1787806891 | 25.56° C | 49% | 985.8 hPa | - | - | - | - |
| 1787804971 | 26.11° C | 49% | 985.5 hPa | - | - | - | - |
| 1787803051 | 27.22° C | 52% | 985.8 hPa | - | - | - | - |
| 1787801131 | 27.22° C | 53% | 985.9 hPa | - | - | - | - |
| 1787799211 | 27.22° C | 54% | 986 hPa | - | - | - | - |
| 1787797290 | 27.22° C | 53% | 986.3 hPa | - | - | - | - |
| 1787795370 | 27.22° C | 54% | 986.1 hPa | - | - | - | - |
| 1787793450 | 27.22° C | 54% | 985.8 hPa | - | - | - | - |
| 1787791530 | 27.22° C | 55% | 985.6 hPa | - | - | - | - |
| 1787789610 | 27.22° C | 55% | 984.7 hPa | - | - | - | - |
| 1787787690 | 27.22° C | 55% | 984 hPa | - | - | - | - |
| 1787785770 | 27.22° C | 55% | 983.8 hPa | - | - | - | - |
| 1787783850 | 27.22° C | 55% | 983.7 hPa | - | - | - | - |
| 1787781930 | 27.22° C | 55% | 983.9 hPa | - | - | - | - |
| 1787780009 | 27.22° C | 54% | 983.7 hPa | - | - | - | - |
| 1787778089 | 27.22° C | 54% | 983.6 hPa | - | - | - | - |
| 1787776169 | 27.22° C | 54% | 983.7 hPa | - | - | - | - |
| 1787774249 | 27.22° C | 54% | 983.5 hPa | - | - | - | - |
| 1787772329 | 27.22° C | 53% | 983.1 hPa | - | - | - | - |
| 1787770409 | 26.67° C | 53% | 983.1 hPa | - | - | - | - |
* Rain since midnight (hover to see other rain measurements)
** Current wind speed in m/s (hover to see current wind gust speed)